Rotterdam, Netherlands

6:14 AM CET on February 07, 2016 (GMT +0100)
Rotterdam

Weather History for EHRD - October, 2013

Change the Weather History Date:

Monday, October 14, 2013

  Actual Average Record
Temperature  
Mean Temperature 50 °F -  
Max Temperature 52 °F 52 °F 68 °F (1996)
Min Temperature 47 °F 42 °F 35 °F (2015)
Degree Days  
Heating Degree Days 16    
Moisture  
Dew Point 49 °F    
Average Humidity 93    
Maximum Humidity 100    
Minimum Humidity 84    
Precipitation  
Precipitation 0.08 in - - ()
Sea Level Pressure  
Sea Level Pressure 29.83 in    
Wind  
Wind Speed 11 mph ()    
Max Wind Speed 14 mph    
Max Gust Speed 23 mph    
Visibility 6.0 miles    
Events Rain    
Averages and records for this station are not official NWS values.
T = Trace of Precipitation, MM = Missing Value Source: Averaged Metar Reports

Daily Weather History Graph

Daily Weather History Graph

Search for Another Location

Airport or City:

Trip Planner

Search our weather history database for the weather conditions in past years. The results will help you decide how hot, cold, wet, or windy it might be!

Date:

Astronomy

Oct. 14, 2013 Rise Set
Actual Time 8:05 AM CEST 6:50 PM CEST
Civil Twilight 7:31 AM CEST 7:24 PM CEST
Nautical Twilight 6:52 AM CEST 8:03 PM CEST
Astronomical Twilight 6:12 AM CEST 8:42 PM CEST
Moon 4:38 PM CEST (10/14) 2:30 AM CEST (10/14)
Length of Visible Light 11h 53m
Length of Day
10h 45m
Waxing Gibbous, 77% of the Moon is Illuminated
Oct 14
Waxing Gibbous
Oct 19
Full
Oct 27
Last Quarter
Nov 3
New
Nov 10
First Quarter

Hourly Weather History & Observations

Time (CEST) Temp. Dew Point Humidity Pressure Visibility Wind Dir Wind Speed Gust Speed Precip Events Conditions
12:25 AM 48.2 °F 48.2 °F 100% 29.86 in 6.2 mi SSE 12.7 mph - N/A   Overcast
12:55 AM 48.2 °F 48.2 °F 100% 29.86 in 5.6 mi SSE 13.8 mph - N/A   Overcast
1:25 AM 48.2 °F 48.2 °F 100% 29.86 in 3.7 mi SSE 13.8 mph - N/A   Light Drizzle
1:55 AM 50.0 °F 48.2 °F 94% 29.86 in 6.2 mi SSE 11.5 mph - N/A   Overcast
2:00 AM 49 °F 48 °F 93% 29.87 in 7 mi SSE 13.4 mph - - Rain Drizzle
2:25 AM 50.0 °F 48.2 °F 94% 29.86 in 6.2 mi SSE 12.7 mph - N/A   Overcast
2:55 AM 50.0 °F 48.2 °F 94% 29.86 in 6.2 mi SSE 13.8 mph - N/A   Overcast
3:25 AM 50.0 °F 48.2 °F 94% 29.86 in 5.6 mi SSE 12.7 mph - N/A   Overcast
3:55 AM 50.0 °F 48.2 °F 94% 29.86 in 6.2 mi SSE 12.7 mph - N/A   Overcast
4:25 AM 50.0 °F 48.2 °F 94% 29.83 in 6.2 mi SSE 11.5 mph - N/A   Overcast
4:55 AM 50.0 °F 48.2 °F 94% 29.83 in 6.2 mi SSE 12.7 mph - N/A   Overcast
5:25 AM 50.0 °F 48.2 °F 94% 29.83 in 6.2 mi SSE 11.5 mph - N/A   Overcast
5:55 AM 50.0 °F 48.2 °F 94% 29.83 in 6.2 mi SSE 12.7 mph - N/A   Overcast
6:25 AM 50.0 °F 46.4 °F 87% 29.83 in 6.2 mi SSE 12.7 mph - N/A   Overcast
6:55 AM 50.0 °F 46.4 °F 87% 29.83 in 6.2 mi South 12.7 mph - N/A   Overcast
7:25 AM 50.0 °F 48.2 °F 94% 29.83 in 6.2 mi South 11.5 mph 23.0 mph N/A   Overcast
7:55 AM 50.0 °F 48.2 °F 94% 29.86 in 6.2 mi South 10.4 mph - N/A   Overcast
8:00 AM 50 °F 47 °F 87% 29.86 in 6 mi South 11.2 mph - -   Partly Cloudy
8:25 AM 50.0 °F 48.2 °F 94% 29.86 in 6.2 mi SSE 10.4 mph - N/A   Overcast
8:55 AM 50.0 °F 48.2 °F 94% 29.86 in 4.3 mi SSE 10.4 mph - N/A   Overcast
9:25 AM 50.0 °F 48.2 °F 94% 29.86 in 6.2 mi SSE 11.5 mph - N/A   Overcast
9:55 AM 50.0 °F 48.2 °F 94% 29.86 in 6.2 mi SSE 10.4 mph - N/A   Overcast
10:25 AM 50.0 °F 48.2 °F 94% 29.86 in 6.2 mi SSE 11.5 mph - N/A   Overcast
10:55 AM 50.0 °F 48.2 °F 94% 29.86 in 6.2 mi SSE 10.4 mph - N/A   Overcast
11:00 AM 51 °F 48 °F 84% 29.88 in 9 mi SSE 11.2 mph - -   Overcast
11:25 AM 50.0 °F 48.2 °F 94% 29.86 in 6.2 mi South 10.4 mph - N/A   Overcast
11:55 AM 51.8 °F 48.2 °F 88% 29.86 in 6.2 mi SSE 10.4 mph - N/A   Overcast
12:25 PM 51.8 °F 48.2 °F 88% 29.86 in 6.2 mi South 10.4 mph - N/A   Overcast
12:55 PM 51.8 °F 50.0 °F 94% 29.86 in 6.2 mi South 10.4 mph - N/A   Overcast
1:25 PM 51.8 °F 48.2 °F 88% 29.86 in 5.6 mi SSE 12.7 mph - N/A   Overcast
1:55 PM 51.8 °F 48.2 °F 88% 29.86 in 6.2 mi SSE 11.5 mph - N/A   Overcast
2:00 PM 52 °F 49 °F 84% 29.86 in 9 mi SSE 13.4 mph - - Rain Light Rain Showers
2:25 PM 51.8 °F 48.2 °F 88% 29.86 in 6.2 mi SSE 12.7 mph - N/A   Overcast
2:55 PM 51.8 °F 50.0 °F 94% 29.83 in 6.2 mi SSE 11.5 mph - N/A Rain Light Rain
3:25 PM 51.8 °F 50.0 °F 94% 29.83 in 5.6 mi SSE 10.4 mph - N/A Rain Light Rain
3:55 PM 51.8 °F 50.0 °F 94% 29.83 in 5.6 mi SE 10.4 mph - N/A Rain Heavy Drizzle
4:25 PM 51.8 °F 50.0 °F 94% 29.83 in 4.3 mi SE 9.2 mph - N/A Rain Light Rain Showers
4:55 PM 51.8 °F 51.8 °F 100% 29.80 in 6.2 mi SSE 11.5 mph - N/A Rain Light Rain
5:25 PM 51.8 °F 50.0 °F 94% 29.80 in 5.6 mi SSE 12.7 mph - N/A   Mostly Cloudy
5:55 PM 51.8 °F 50.0 °F 94% 29.80 in 6.2 mi SSE 10.4 mph - N/A   Mostly Cloudy
6:25 PM 51.8 °F 50.0 °F 94% 29.80 in 6.2 mi South 10.4 mph - N/A   Partly Cloudy
6:55 PM 51.8 °F 50.0 °F 94% 29.80 in 6.2 mi SSE 8.1 mph - N/A   Mostly Cloudy
7:25 PM 51.8 °F 50.0 °F 94% 29.80 in 6.2 mi SSE 6.9 mph - N/A Rain Light Rain
7:55 PM 51.8 °F 50.0 °F 94% 29.80 in 6.2 mi SSE 8.1 mph - N/A   Scattered Clouds
8:00 PM 52 °F 50 °F 91% 29.81 in 8 mi SSE 6.7 mph - - Rain Rain
8:25 PM 51.8 °F 50.0 °F 94% 29.80 in 6.2 mi SSE 6.9 mph - N/A   Unknown
8:55 PM 51.8 °F 50.0 °F 94% 29.80 in 6.2 mi SSE 5.8 mph - N/A   Unknown
9:25 PM 51.8 °F 50.0 °F 94% 29.77 in 6.2 mi SSE 8.1 mph - N/A   Unknown
9:55 PM 51.8 °F 50.0 °F 94% 29.77 in 5.6 mi SSE 6.9 mph - N/A   Unknown
10:25 PM 51.8 °F 50.0 °F 94% 29.77 in 6.2 mi South 8.1 mph - N/A   Partly Cloudy
10:55 PM 51.8 °F 50.0 °F 94% 29.77 in 5.0 mi South 8.1 mph - N/A   Light Drizzle
11:00 PM 51 °F 50 °F 94% 29.78 in 4 mi South 8.9 mph - - Rain Light Drizzle
11:25 PM 51.8 °F 50.0 °F 94% 29.77 in 4.3 mi South 9.2 mph - N/A   Partly Cloudy
11:55 PM 51.8 °F 50.0 °F 94% 29.77 in 4.3 mi South 9.2 mph - N/A   Mostly Cloudy